Location: Buchberg
(46.9333°N, 15.8500°E)
Time: 09:46:42
(UTC+00:00)

Cosmos 1802 Rocket - Pass Details

Date: 14 July 2020
Orbit: 954 x 1011 km, 82.9° (Epoch: 07 August)

Event Time Altitude Azimuth Distance (km) Brightness Sun altitude
Exits shadow 01:03:01 24° 208° (SSW) 1,932 4.9 -16.2°
Maximum altitude 01:06:56 62° 282° (WNW) 1,126 4.2 -15.9°
Drops below altitude 10° 01:13:20 10° 3° (N) 2,803 7.4 -15.4°
Sets 01:15:56 0° 7° (N) 3,758 8.3 -15.1°
